OPS 8781

Satellite information

Favourite Embed

Satellite Type and Status

PAYLOADIN ORBIT

Key statistics

Satellite OPS 8781 at a glance.

Uptime

17491

Days in orbit

Revolutions

≈ 14.1

Per day

Orbit

LEO

Low Earth Orbit

Inclination

63.3

Latest

Satellite identification and parameters

Extended collection of information and parameters for OPS 8781.

Object identification

Identified? True

Debris? False

Object name: OPS 8781

International designator: 1977-112A

Object number (NORAD): 10502

Object ID (CCSDS): 10502

Country: UNITED STATES OF AMERICA (US)

Current information (Y/N): Y

RCS size: LARGE

Orbital parameters

Period: 102.364 minutes

Inclination: 63.3291 deg

SMA: 7248.649 km

Apoapsis: 1229.379 km

Periapsis: 511.65 km

RAAN: 50.9405 deg

Eccentricy: 0.04950781

Argument of periapsis: 158.7712 deg

Mean anomaly: 203.4704 deg

Mean motion: 14.06750626 rev/day

Mean motion (dot): 0.00003477 rev/day2

B* drag term: 0.00069826344 1/REarth

Two-line elements (TLE)

Creation date: Oct. 27, 2025, 2:46 a.m.

Reference frame: TEME

Reference center: EARTH

Epoch: Oct. 26, 2025, 4:20 p.m. UTC

TLE line 0: 0 OPS 8781

TLE line 1: 1 10502U 77112A 25299.68089122 .00003477 00000-0 69826-3 0 9994

TLE line 2: 2 10502 63.3291 50.9405 0495078 158.7712 203.4704 14.06750626 75213

Live tracking on map

Real-time ground track for satellite OPS 8781.

In-orbit conjunctions

There are no conjunctions computed for OPS 8781, at the moment. Check back to stay up to date, as we update our databases every day.

Go to all conjunctions

Associated space launch

The Parcae satellites were passive ELINT satellites. MSD satellites were dispensers of triplets of ocean surveillance satellites.

OPS 8781 was lifted into orbit during the mission ‘Atlas F/MSD | Parcae 2A,B,C & MSD 2’, on board a Atlas F/MSD space rocket.

The launch took place on Dec. 8, 1977, 5:45 p.m. from Space Launch Complex 3W.

For more information about the launch, click the button.

Launch to space Atlas F/MSD | Parcae 2A,B,C & MSD 2
Atlas F/MSD | Parcae 2A,B,C & MSD 2

Agency: N/A

Status: Launch Successful

Launch date: Dec. 8, 1977, 5:45 p.m. UTC

Rocket: Atlas F/MSD

Launch pad: Space Launch Complex 3W

Location: Vandenberg SFB, CA, USA

...

Latest news about this satellite

There are no fresh news available about this satellite. Check back as we update our databases every day.


Newsletter sign-up

Weekly statistics, charts and insights to help you stay on top of the space industry.